AAY3214 KBNA-KPVU

Flight info

Callsign AAY3214
Flight time 3h 7m
Altitude 36000
Route PARDN4 NAKIY TWRAY BUM HLC J80 FQF BASNN SPANE TAYTR3
Aircraft A320/M-SDE3FGHIRWY/LB1

Departure

Time 2026-04-23 17:44
Airport Nashville International Airport (KBNA)

Arrival

Time 2026-04-23 20:51
Airport Provo Municipal Airport (KPVU)
Time Latitude Longitude Altitude Speed Heading
2026-04-23 17:28 36.12700 -86.67221 571 ft 0 kts 224°
2026-04-23 17:34 36.12716 -86.67202 573 ft 2 kts 224°
2026-04-23 17:35 36.12728 -86.67188 571 ft 2 kts 224°
2026-04-23 17:35 36.12737 -86.67159 572 ft 0 kts 310°
2026-04-23 17:37 36.12754 -86.67184 571 ft 10 kts 310°
2026-04-23 17:37 36.12817 -86.67311 570 ft 6 kts 245°
2026-04-23 17:38 36.12784 -86.67354 573 ft 9 kts 224°
2026-04-23 17:38 36.12722 -86.67413 575 ft 11 kts 188°
2026-04-23 17:38 36.12664 -86.67362 577 ft 10 kts 134°
2026-04-23 17:38 36.12613 -86.67296 579 ft 11 kts 133°
2026-04-23 17:39 36.12550 -86.67213 575 ft 18 kts 133°
2026-04-23 17:39 36.12450 -86.67082 579 ft 22 kts 133°
2026-04-23 17:39 36.12339 -86.66938 572 ft 24 kts 134°
2026-04-23 17:39 36.12271 -86.66774 572 ft 22 kts 102°
2026-04-23 17:40 36.12226 -86.66611 570 ft 17 kts 108°
2026-04-23 17:40 36.12258 -86.66518 569 ft 12 kts 22°
2026-04-23 17:40 36.12361 -86.66475 567 ft 22 kts 18°
2026-04-23 17:40 36.12519 -86.66412 573 ft 24 kts 18°
2026-04-23 17:41 36.12669 -86.66352 569 ft 22 kts 18°
2026-04-23 17:41 36.12955 -86.66237 564 ft 21 kts 18°
2026-04-23 17:41 36.13094 -86.66181 558 ft 21 kts 18°
2026-04-23 17:42 36.13351 -86.66079 550 ft 12 kts 18°
2026-04-23 17:42 36.13377 -86.66049 549 ft 3 kts 81°
2026-04-23 17:42 36.13373 -86.66016 549 ft 7 kts 103°
2026-04-23 17:43 36.13353 -86.65956 550 ft 6 kts 129°
2026-04-23 17:43 36.13305 -86.65958 549 ft 14 kts 198°
2026-04-23 17:43 36.12948 -86.66098 559 ft 95 kts 198°
2026-04-23 17:43 36.12101 -86.66434 632 ft 154 kts 197°
2026-04-23 17:44 36.11084 -86.66818 1570 ft 153 kts 196°
2026-04-23 17:44 36.10099 -86.67347 2355 ft 162 kts 216°
2026-04-23 17:44 36.08894 -86.70183 3009 ft 212 kts 244°
2026-04-23 17:45 36.08282 -86.71954 3460 ft 236 kts 243°
2026-04-23 17:45 36.06902 -86.75941 5001 ft 260 kts 248°
2026-04-23 17:45 36.06749 -86.78177 5780 ft 273 kts 277°
2026-04-23 17:46 36.07691 -86.82813 6865 ft 279 kts 281°
2026-04-23 17:46 36.08181 -86.85144 6957 ft 279 kts 281°
2026-04-23 17:46 36.08675 -86.87432 6971 ft 279 kts 284°
2026-04-23 17:47 36.09583 -86.89583 7098 ft 288 kts 301°
2026-04-23 17:47 36.10711 -86.91643 7984 ft 288 kts 301°
2026-04-23 17:47 36.12928 -86.95791 9725 ft 294 kts 300°
2026-04-23 17:48 36.14063 -86.97929 10399 ft 303 kts 300°
2026-04-23 17:48 36.15262 -87.00199 10644 ft 327 kts 300°
2026-04-23 17:48 36.16553 -87.02647 10828 ft 350 kts 301°
2026-04-23 17:48 36.17925 -87.05234 11161 ft 365 kts 301°
2026-04-23 17:49 36.19340 -87.07895 11773 ft 371 kts 301°
2026-04-23 17:49 36.20751 -87.10545 12462 ft 375 kts 302°
2026-04-23 17:49 36.22198 -87.13259 13158 ft 378 kts 302°
2026-04-23 17:49 36.23657 -87.15998 13852 ft 382 kts 302°
2026-04-23 17:50 36.25126 -87.18759 14469 ft 385 kts 302°
2026-04-23 17:50 36.27447 -87.24711 15644 ft 389 kts 284°
2026-04-23 17:50 36.28022 -87.28003 16229 ft 391 kts 280°
2026-04-23 17:51 36.28552 -87.31328 16830 ft 393 kts 280°
2026-04-23 17:51 36.29087 -87.34666 17432 ft 395 kts 281°
2026-04-23 17:51 36.30162 -87.41354 18577 ft 399 kts 281°
2026-04-23 17:52 36.30707 -87.44742 19070 ft 401 kts 281°
2026-04-23 17:52 36.32199 -87.51477 19934 ft 409 kts 293°
2026-04-23 17:52 36.33531 -87.54614 20369 ft 413 kts 298°
2026-04-23 17:53 36.36367 -87.60884 21220 ft 419 kts 298°
2026-04-23 17:53 36.37792 -87.64055 21608 ft 423 kts 298°
2026-04-23 17:53 36.39232 -87.67264 22044 ft 426 kts 298°
2026-04-23 17:54 36.40661 -87.70452 22441 ft 429 kts 298°
2026-04-23 17:54 36.42121 -87.73715 22825 ft 432 kts 298°
2026-04-23 17:54 36.45058 -87.80280 23634 ft 437 kts 298°
2026-04-23 17:55 36.48042 -87.86930 24275 ft 442 kts 298°
2026-04-23 17:55 36.49526 -87.90244 24634 ft 444 kts 298°
2026-04-23 17:55 36.51025 -87.93600 24981 ft 445 kts 298°
2026-04-23 17:56 36.52534 -87.96989 25312 ft 447 kts 298°
2026-04-23 17:56 36.55554 -88.03787 25935 ft 451 kts 298°
2026-04-23 17:56 36.57080 -88.07225 26240 ft 453 kts 298°
2026-04-23 17:57 36.58591 -88.10634 26523 ft 455 kts 298°
2026-04-23 17:57 36.60126 -88.14094 26849 ft 456 kts 297°
2026-04-23 17:57 36.63206 -88.21044 27420 ft 459 kts 297°
2026-04-23 17:58 36.64731 -88.24548 27728 ft 460 kts 296°
2026-04-23 17:58 36.66159 -88.28119 28009 ft 461 kts 294°
2026-04-23 17:58 36.67479 -88.31715 28300 ft 462 kts 292°
2026-04-23 17:58 36.68750 -88.35383 28703 ft 460 kts 292°
2026-04-23 17:59 36.69998 -88.39064 29041 ft 461 kts 292°
2026-04-23 17:59 36.71249 -88.42735 29450 ft 459 kts 292°
2026-04-23 17:59 36.72518 -88.46397 29855 ft 458 kts 292°
2026-04-23 17:59 36.73804 -88.50028 30288 ft 456 kts 292°
2026-04-23 18:00 36.75082 -88.53594 30631 ft 455 kts 291°
2026-04-23 18:00 36.76373 -88.57186 30978 ft 453 kts 292°
2026-04-23 18:00 36.77663 -88.60780 31309 ft 453 kts 292°
2026-04-23 18:00 36.78943 -88.64361 31652 ft 451 kts 292°
2026-04-23 18:01 36.80219 -88.67942 31994 ft 450 kts 292°
2026-04-23 18:01 36.81483 -88.71510 32360 ft 448 kts 291°
2026-04-23 18:01 36.82734 -88.75061 32731 ft 446 kts 291°
2026-04-23 18:01 36.83982 -88.78609 33062 ft 445 kts 291°
2026-04-23 18:02 36.84806 -88.80954 33302 ft 444 kts 291°
2026-04-23 18:02 36.86465 -88.85664 33797 ft 442 kts 291°
2026-04-23 18:02 36.87686 -88.89121 34141 ft 440 kts 291°
2026-04-23 18:02 36.88921 -88.92617 34451 ft 439 kts 291°
2026-04-23 18:03 36.90149 -88.96105 34735 ft 438 kts 291°
2026-04-23 18:03 36.91372 -88.99594 35010 ft 437 kts 291°
2026-04-23 18:03 36.92589 -89.03073 35267 ft 437 kts 291°
2026-04-23 18:03 36.93803 -89.06545 35511 ft 436 kts 291°
2026-04-23 18:04 36.95018 -89.10017 35760 ft 435 kts 291°
2026-04-23 18:04 36.96231 -89.13487 35969 ft 435 kts 291°
2026-04-23 18:04 36.97447 -89.16969 36026 ft 438 kts 290°
2026-04-23 18:05 36.99886 -89.23977 36033 ft 439 kts 290°
2026-04-23 18:05 37.02307 -89.30939 36026 ft 438 kts 290°
2026-04-23 18:06 37.04732 -89.37936 36024 ft 437 kts 290°
2026-04-23 18:06 37.07138 -89.44897 36006 ft 437 kts 290°
2026-04-23 18:07 37.09558 -89.51900 36004 ft 437 kts 290°
2026-04-23 18:07 37.11974 -89.58915 36003 ft 437 kts 290°
2026-04-23 18:08 37.13970 -89.64736 36003 ft 437 kts 290°
2026-04-23 18:08 37.16763 -89.72892 36003 ft 437 kts 290°
2026-04-23 18:09 37.19174 -89.79924 36005 ft 437 kts 290°
2026-04-23 18:09 37.21579 -89.86960 36009 ft 437 kts 290°
2026-04-23 18:10 37.23956 -89.93944 36022 ft 437 kts 289°
2026-04-23 18:10 37.26335 -90.00970 36022 ft 437 kts 289°
2026-04-23 18:11 37.28708 -90.07967 36020 ft 437 kts 289°
2026-04-23 18:11 37.31087 -90.15010 36016 ft 437 kts 289°
2026-04-23 18:12 37.33463 -90.22059 36010 ft 437 kts 289°
2026-04-23 18:12 37.35819 -90.29053 36011 ft 437 kts 289°
2026-04-23 18:13 37.38183 -90.36102 36004 ft 437 kts 289°
2026-04-23 18:13 37.40541 -90.43158 36014 ft 437 kts 289°
2026-04-23 18:14 37.42506 -90.49043 36011 ft 437 kts 289°
2026-04-23 18:14 37.45237 -90.57257 36008 ft 437 kts 289°
2026-04-23 18:15 37.47578 -90.64323 36005 ft 437 kts 289°
2026-04-23 18:15 37.49921 -90.71393 36000 ft 437 kts 289°
2026-04-23 18:16 37.52262 -90.78459 36001 ft 437 kts 289°
2026-04-23 18:16 37.54599 -90.85529 36001 ft 437 kts 289°
2026-04-23 18:17 37.58071 -90.96092 35976 ft 437 kts 289°
2026-04-23 18:17 37.60279 -91.03217 35976 ft 434 kts 282°
2026-04-23 18:18 37.61829 -91.10559 35960 ft 433 kts 281°
2026-04-23 18:18 37.63368 -91.17909 35967 ft 433 kts 282°
2026-04-23 18:19 37.64643 -91.24024 35951 ft 433 kts 282°
2026-04-23 18:19 37.66171 -91.31387 35947 ft 434 kts 282°
2026-04-23 18:20 37.67696 -91.38764 35942 ft 434 kts 282°
2026-04-23 18:20 37.69220 -91.46155 35945 ft 434 kts 282°
2026-04-23 18:21 37.70726 -91.53486 35948 ft 434 kts 282°
2026-04-23 18:21 37.72242 -91.60880 35942 ft 433 kts 282°
2026-04-23 18:22 37.73747 -91.68213 35926 ft 433 kts 282°
2026-04-23 18:22 37.75246 -91.75586 35920 ft 433 kts 282°
2026-04-23 18:23 37.77483 -91.86665 35907 ft 433 kts 282°
2026-04-23 18:24 37.79718 -91.97731 35898 ft 433 kts 282°
2026-04-23 18:25 37.81933 -92.08759 35908 ft 433 kts 282°
2026-04-23 18:25 37.83408 -92.16150 35908 ft 433 kts 281°
2026-04-23 18:26 37.84874 -92.23532 35906 ft 432 kts 281°
2026-04-23 18:26 37.86333 -92.30916 35907 ft 432 kts 282°
2026-04-23 18:27 37.87781 -92.38261 35899 ft 432 kts 281°
2026-04-23 18:27 37.89238 -92.45655 35890 ft 432 kts 281°
2026-04-23 18:28 37.90680 -92.53007 35890 ft 432 kts 281°
2026-04-23 18:28 37.92124 -92.60392 35889 ft 432 kts 281°
2026-04-23 18:29 37.93573 -92.67804 35901 ft 432 kts 281°
2026-04-23 18:29 37.95006 -92.75161 35879 ft 432 kts 281°
2026-04-23 18:30 37.96433 -92.82573 35858 ft 432 kts 281°
2026-04-23 18:30 37.97855 -92.89986 35855 ft 433 kts 281°
2026-04-23 18:31 37.99280 -92.97403 35851 ft 433 kts 281°
2026-04-23 18:31 38.00702 -93.04821 35847 ft 433 kts 281°
2026-04-23 18:32 38.02113 -93.12211 35849 ft 433 kts 280°
2026-04-23 18:32 38.03526 -93.19638 35849 ft 432 kts 280°
2026-04-23 18:33 38.04924 -93.27052 35845 ft 432 kts 280°
2026-04-23 18:33 38.06319 -93.34478 35845 ft 432 kts 280°
2026-04-23 18:34 38.07713 -93.41893 35842 ft 432 kts 280°
2026-04-23 18:34 38.09094 -93.49280 35840 ft 432 kts 280°
2026-04-23 18:35 38.10477 -93.56717 35832 ft 432 kts 280°
2026-04-23 18:35 38.11847 -93.64102 35833 ft 432 kts 280°
2026-04-23 18:36 38.13225 -93.71539 35836 ft 431 kts 280°
2026-04-23 18:36 38.14588 -93.78935 35832 ft 432 kts 280°
2026-04-23 18:37 38.15953 -93.86383 35839 ft 431 kts 279°
2026-04-23 18:37 38.17310 -93.93807 35832 ft 431 kts 279°
2026-04-23 18:38 38.18651 -94.01184 35833 ft 431 kts 279°
2026-04-23 18:38 38.20000 -94.08609 35830 ft 431 kts 279°
2026-04-23 18:39 38.21350 -94.16043 35819 ft 431 kts 279°
2026-04-23 18:39 38.22691 -94.23492 35833 ft 430 kts 279°
2026-04-23 18:40 38.24010 -94.30880 35827 ft 430 kts 279°
2026-04-23 18:40 38.25338 -94.38310 35821 ft 430 kts 279°
2026-04-23 18:41 38.26660 -94.45745 35815 ft 430 kts 279°
2026-04-23 18:41 38.28007 -94.53133 35818 ft 430 kts 281°
2026-04-23 18:42 38.29490 -94.60523 35818 ft 430 kts 281°
2026-04-23 18:42 38.30989 -94.67906 35818 ft 429 kts 281°
2026-04-23 18:43 38.32446 -94.75245 35796 ft 429 kts 281°
2026-04-23 18:43 38.33895 -94.82627 35796 ft 428 kts 281°
2026-04-23 18:44 38.35324 -94.89959 35784 ft 428 kts 281°
2026-04-23 18:44 38.36752 -94.97333 35800 ft 428 kts 280°
2026-04-23 18:45 38.38170 -95.04651 35788 ft 426 kts 280°
2026-04-23 18:45 38.39589 -95.12010 35783 ft 425 kts 280°
2026-04-23 18:46 38.41002 -95.19336 35769 ft 425 kts 280°
2026-04-23 18:46 38.42408 -95.26621 35762 ft 424 kts 280°
2026-04-23 18:47 38.43812 -95.33939 35755 ft 424 kts 280°
2026-04-23 18:47 38.45196 -95.41216 35756 ft 423 kts 280°
2026-04-23 18:48 38.46576 -95.48527 35744 ft 422 kts 280°
2026-04-23 18:48 38.47945 -95.55763 35739 ft 421 kts 280°
2026-04-23 18:49 38.49317 -95.63037 35735 ft 421 kts 280°
2026-04-23 18:49 38.50678 -95.70271 35723 ft 420 kts 280°
2026-04-23 18:50 38.51821 -95.76353 35742 ft 420 kts 279°
2026-04-23 18:50 38.53388 -95.84790 35727 ft 419 kts 279°
2026-04-23 18:51 38.54721 -95.92004 35710 ft 419 kts 279°
2026-04-23 18:51 38.56062 -95.99262 35689 ft 418 kts 279°
2026-04-23 18:52 38.57402 -96.06511 35684 ft 418 kts 279°
2026-04-23 18:52 38.58728 -96.13714 35689 ft 418 kts 279°
2026-04-23 18:53 38.60057 -96.20957 35684 ft 417 kts 279°
2026-04-23 18:53 38.61372 -96.28158 35672 ft 417 kts 279°
2026-04-23 18:54 38.62683 -96.35393 35666 ft 417 kts 279°
2026-04-23 18:54 38.63991 -96.42635 35652 ft 417 kts 279°
2026-04-23 18:55 38.65286 -96.49835 35662 ft 417 kts 279°
2026-04-23 18:55 38.66588 -96.57087 35648 ft 416 kts 279°
2026-04-23 18:56 38.67664 -96.63094 35646 ft 416 kts 279°
2026-04-23 18:56 38.69165 -96.71490 35642 ft 416 kts 279°
2026-04-23 18:57 38.70449 -96.78721 35660 ft 416 kts 278°
2026-04-23 18:57 38.71720 -96.85909 35661 ft 416 kts 278°
2026-04-23 18:58 38.72991 -96.93135 35659 ft 415 kts 278°
2026-04-23 18:58 38.74255 -97.00354 35648 ft 414 kts 278°
2026-04-23 18:59 38.75506 -97.07508 35644 ft 413 kts 278°
2026-04-23 18:59 38.76758 -97.14692 35640 ft 413 kts 278°
2026-04-23 19:00 38.78012 -97.21891 35638 ft 412 kts 278°
2026-04-23 19:00 38.79252 -97.29031 35638 ft 412 kts 278°
2026-04-23 19:01 38.80485 -97.36200 35627 ft 411 kts 278°
2026-04-23 19:01 38.81707 -97.43381 35622 ft 411 kts 278°
2026-04-23 19:02 38.82726 -97.49344 35622 ft 411 kts 278°
2026-04-23 19:02 38.84152 -97.57694 35631 ft 411 kts 278°
2026-04-23 19:03 38.85362 -97.64816 35649 ft 410 kts 278°
2026-04-23 19:03 38.86573 -97.71972 35651 ft 409 kts 278°
2026-04-23 19:04 38.87757 -97.79068 35647 ft 408 kts 277°
2026-04-23 19:04 38.88957 -97.86191 35634 ft 408 kts 277°
2026-04-23 19:05 38.90152 -97.93308 35625 ft 408 kts 277°
2026-04-23 19:05 38.91135 -97.99234 35654 ft 407 kts 277°
2026-04-23 19:06 38.92305 -98.06346 35642 ft 405 kts 277°
2026-04-23 19:06 38.93461 -98.13383 35632 ft 404 kts 277°
2026-04-23 19:07 38.94617 -98.20447 35635 ft 404 kts 277°
2026-04-23 19:07 38.95780 -98.27514 35631 ft 403 kts 277°
2026-04-23 19:08 38.96929 -98.34537 35671 ft 403 kts 277°
2026-04-23 19:08 38.98068 -98.41558 35624 ft 398 kts 276°
2026-04-23 19:09 38.99196 -98.48535 35637 ft 398 kts 276°
2026-04-23 19:09 39.00313 -98.55504 35645 ft 398 kts 276°
2026-04-23 19:10 39.01432 -98.62436 35650 ft 397 kts 276°
2026-04-23 19:10 39.02542 -98.69411 35655 ft 397 kts 276°
2026-04-23 19:11 39.03637 -98.76331 35679 ft 396 kts 276°
2026-04-23 19:11 39.04744 -98.83276 35672 ft 395 kts 276°
2026-04-23 19:12 39.05838 -98.90173 35662 ft 394 kts 276°
2026-04-23 19:12 39.06923 -98.97102 35652 ft 394 kts 276°
2026-04-23 19:13 39.08010 -99.04041 35637 ft 394 kts 276°
2026-04-23 19:13 39.09083 -99.10924 35684 ft 394 kts 275°
2026-04-23 19:14 39.10156 -99.17840 35692 ft 392 kts 275°
2026-04-23 19:14 39.11222 -99.24700 35694 ft 391 kts 275°
2026-04-23 19:15 39.12280 -99.31564 35675 ft 391 kts 275°
2026-04-23 19:15 39.13337 -99.38431 35663 ft 390 kts 275°
2026-04-23 19:16 39.14385 -99.45302 35673 ft 390 kts 275°
2026-04-23 19:16 39.15412 -99.52120 35694 ft 389 kts 275°
2026-04-23 19:17 39.16960 -99.62381 35688 ft 388 kts 275°
2026-04-23 19:17 39.17989 -99.69161 35701 ft 388 kts 275°
2026-04-23 19:18 39.19018 -99.76015 35685 ft 389 kts 274°
2026-04-23 19:18 39.20040 -99.82862 35676 ft 389 kts 274°
2026-04-23 19:19 39.21559 -99.93127 35693 ft 389 kts 274°
2026-04-23 19:20 39.23074 -100.03400 35686 ft 389 kts 274°
2026-04-23 19:20 39.24079 -100.10266 35682 ft 389 kts 274°
2026-04-23 19:21 39.25571 -100.20540 35718 ft 389 kts 274°
2026-04-23 19:22 39.26443 -100.27395 35704 ft 385 kts 271°
2026-04-23 19:22 39.27325 -100.37626 35696 ft 383 kts 270°
2026-04-23 19:23 39.27906 -100.44466 35696 ft 383 kts 270°
2026-04-23 19:24 39.28844 -100.54679 35707 ft 383 kts 271°
2026-04-23 19:24 39.29797 -100.64945 35745 ft 382 kts 270°
2026-04-23 19:25 39.31031 -100.78552 35744 ft 382 kts 270°
2026-04-23 19:26 39.31936 -100.88763 35711 ft 383 kts 270°
2026-04-23 19:27 39.33440 -101.05867 35684 ft 384 kts 270°
2026-04-23 19:28 39.34621 -101.19551 35662 ft 384 kts 270°
2026-04-23 19:29 39.35498 -101.29807 35685 ft 384 kts 270°
2026-04-23 19:30 39.36366 -101.40103 35733 ft 383 kts 270°
2026-04-23 19:31 39.37228 -101.50334 35764 ft 382 kts 270°
2026-04-23 19:31 39.37791 -101.57130 35671 ft 382 kts 270°
2026-04-23 19:32 39.38349 -101.63966 35669 ft 382 kts 270°
2026-04-23 19:32 39.38918 -101.70798 35698 ft 383 kts 271°
2026-04-23 19:33 39.39672 -101.77595 35677 ft 385 kts 272°
2026-04-23 19:33 39.40933 -101.87868 35665 ft 385 kts 272°
2026-04-23 19:34 39.41732 -101.94730 35688 ft 385 kts 272°
2026-04-23 19:35 39.42890 -102.05023 35683 ft 388 kts 273°
2026-04-23 19:35 39.43667 -102.11962 35663 ft 391 kts 273°
2026-04-23 19:36 39.44454 -102.18955 35666 ft 393 kts 273°
2026-04-23 19:36 39.45235 -102.25927 35667 ft 395 kts 273°
2026-04-23 19:37 39.46017 -102.32978 35673 ft 396 kts 273°
2026-04-23 19:37 39.46793 -102.40047 35682 ft 396 kts 273°
2026-04-23 19:38 39.47573 -102.47130 35685 ft 397 kts 274°
2026-04-23 19:38 39.48342 -102.54196 35684 ft 398 kts 274°
2026-04-23 19:39 39.49107 -102.61310 35683 ft 399 kts 274°
2026-04-23 19:39 39.49872 -102.68444 35684 ft 399 kts 274°
2026-04-23 19:40 39.50638 -102.75528 35697 ft 400 kts 274°
2026-04-23 19:40 39.51404 -102.82686 35705 ft 400 kts 274°
2026-04-23 19:41 39.52155 -102.89804 35699 ft 401 kts 274°
2026-04-23 19:41 39.52907 -102.96980 35717 ft 402 kts 274°
2026-04-23 19:42 39.53655 -103.04140 35685 ft 403 kts 274°
2026-04-23 19:42 39.54403 -103.11364 35673 ft 405 kts 274°
2026-04-23 19:43 39.55156 -103.18615 35696 ft 406 kts 274°
2026-04-23 19:43 39.55902 -103.25840 35688 ft 406 kts 274°
2026-04-23 19:44 39.56647 -103.33117 35688 ft 407 kts 274°
2026-04-23 19:44 39.57384 -103.40411 35687 ft 407 kts 274°
2026-04-23 19:45 39.58111 -103.47660 35690 ft 407 kts 274°
2026-04-23 19:45 39.58844 -103.54958 35675 ft 408 kts 275°
2026-04-23 19:46 39.59571 -103.62271 35673 ft 408 kts 275°
2026-04-23 19:46 39.60284 -103.69550 35667 ft 409 kts 274°
2026-04-23 19:47 39.60877 -103.75649 35669 ft 410 kts 275°
2026-04-23 19:47 39.61716 -103.84226 35665 ft 410 kts 274°
2026-04-23 19:48 39.62425 -103.91532 35667 ft 410 kts 275°
2026-04-23 19:48 39.63136 -103.98892 35687 ft 411 kts 275°
2026-04-23 19:49 39.63844 -104.06273 35675 ft 412 kts 275°
2026-04-23 19:49 39.64538 -104.13622 35667 ft 413 kts 275°
2026-04-23 19:50 39.65229 -104.21026 35668 ft 413 kts 275°
2026-04-23 19:50 39.65924 -104.28438 35668 ft 413 kts 275°
2026-04-23 19:51 39.66614 -104.35803 35705 ft 413 kts 275°
2026-04-23 19:51 39.67297 -104.43222 35741 ft 413 kts 275°
2026-04-23 19:52 39.67862 -104.49380 35772 ft 413 kts 275°
2026-04-23 19:52 39.68653 -104.57994 35815 ft 413 kts 275°
2026-04-23 19:53 39.69296 -104.65410 35846 ft 413 kts 274°
2026-04-23 19:53 39.69750 -104.71604 35848 ft 413 kts 274°
2026-04-23 19:54 39.70350 -104.80255 35851 ft 413 kts 274°
2026-04-23 19:54 39.70790 -104.86444 35852 ft 414 kts 274°
2026-04-23 19:55 39.71326 -104.93907 35821 ft 414 kts 274°
2026-04-23 19:55 39.71848 -105.01321 35797 ft 414 kts 274°
2026-04-23 19:56 39.72369 -105.08769 35808 ft 413 kts 274°
2026-04-23 19:56 39.72889 -105.16169 35811 ft 413 kts 274°
2026-04-23 19:57 39.73409 -105.23623 35796 ft 413 kts 274°
2026-04-23 19:57 39.73922 -105.31074 35794 ft 413 kts 274°
2026-04-23 19:58 39.74421 -105.38444 35782 ft 410 kts 274°
2026-04-23 19:58 39.74912 -105.45827 35746 ft 409 kts 274°
2026-04-23 19:59 39.75397 -105.53167 35726 ft 407 kts 274°
2026-04-23 19:59 39.75879 -105.60494 35718 ft 406 kts 274°
2026-04-23 20:00 39.76358 -105.67808 35713 ft 406 kts 274°
2026-04-23 20:00 39.76824 -105.75106 35720 ft 405 kts 274°
2026-04-23 20:01 39.77294 -105.82395 35744 ft 404 kts 274°
2026-04-23 20:01 39.77757 -105.89677 35741 ft 404 kts 274°
2026-04-23 20:02 39.78212 -105.96961 35768 ft 404 kts 274°
2026-04-23 20:02 39.78661 -106.04249 35775 ft 404 kts 274°
2026-04-23 20:03 39.79105 -106.11541 35801 ft 406 kts 274°
2026-04-23 20:03 39.79555 -106.18875 35789 ft 407 kts 274°
2026-04-23 20:04 39.79996 -106.26182 35803 ft 408 kts 274°
2026-04-23 20:04 39.80434 -106.33558 35806 ft 409 kts 274°
2026-04-23 20:05 39.80870 -106.40952 35834 ft 408 kts 274°
2026-04-23 20:05 39.81294 -106.48271 35846 ft 407 kts 274°
2026-04-23 20:06 39.81718 -106.55625 35875 ft 407 kts 274°
2026-04-23 20:06 39.82137 -106.62977 35887 ft 406 kts 274°
2026-04-23 20:07 39.82548 -106.70261 35886 ft 406 kts 274°
2026-04-23 20:07 39.82953 -106.77583 35908 ft 405 kts 274°
2026-04-23 20:08 39.83352 -106.84852 35909 ft 403 kts 274°
2026-04-23 20:08 39.83744 -106.92136 35985 ft 403 kts 274°
2026-04-23 20:09 39.84137 -106.99403 35974 ft 402 kts 274°
2026-04-23 20:09 39.84527 -107.06667 35965 ft 402 kts 274°
2026-04-23 20:10 39.84845 -107.12686 35968 ft 400 kts 274°
2026-04-23 20:10 39.85278 -107.21114 35937 ft 402 kts 274°
2026-04-23 20:11 39.85641 -107.28396 35912 ft 403 kts 274°
2026-04-23 20:11 39.86010 -107.35686 35924 ft 403 kts 274°
2026-04-23 20:12 39.86376 -107.42957 35914 ft 404 kts 274°
2026-04-23 20:12 39.86743 -107.50228 35912 ft 404 kts 274°
2026-04-23 20:13 39.87103 -107.57539 35918 ft 405 kts 274°
2026-04-23 20:13 39.87450 -107.64865 35914 ft 405 kts 274°
2026-04-23 20:14 39.87797 -107.72138 35915 ft 405 kts 274°
2026-04-23 20:14 39.88134 -107.79463 35922 ft 404 kts 274°
2026-04-23 20:15 39.88466 -107.86786 36007 ft 404 kts 274°
2026-04-23 20:15 39.88799 -107.94046 36011 ft 403 kts 274°
2026-04-23 20:16 39.89136 -108.01338 36008 ft 403 kts 273°
2026-04-23 20:16 39.89455 -108.08632 35996 ft 403 kts 273°
2026-04-23 20:17 39.89774 -108.15918 35980 ft 402 kts 273°
2026-04-23 20:17 39.90089 -108.23160 35973 ft 403 kts 273°
2026-04-23 20:18 39.90400 -108.30485 35932 ft 404 kts 273°
2026-04-23 20:18 39.90702 -108.37810 35929 ft 405 kts 273°
2026-04-23 20:19 39.91007 -108.45100 35925 ft 405 kts 273°
2026-04-23 20:19 39.91301 -108.52433 35940 ft 405 kts 273°
2026-04-23 20:20 39.91590 -108.59754 35942 ft 404 kts 273°
2026-04-23 20:20 39.91874 -108.67067 35945 ft 404 kts 273°
2026-04-23 20:21 39.92157 -108.74334 35947 ft 403 kts 273°
2026-04-23 20:21 39.92299 -108.77991 35714 ft 401 kts 273°
2026-04-23 20:21 39.92438 -108.81615 35129 ft 398 kts 274°
2026-04-23 20:21 39.92569 -108.85161 34538 ft 396 kts 274°
2026-04-23 20:22 39.92699 -108.88735 33926 ft 394 kts 274°
2026-04-23 20:22 39.92830 -108.92299 33150 ft 393 kts 274°
2026-04-23 20:22 39.92960 -108.95883 32307 ft 396 kts 275°
2026-04-23 20:22 39.93089 -108.99448 32020 ft 401 kts 275°
2026-04-23 20:23 39.93241 -109.03097 31908 ft 404 kts 276°
2026-04-23 20:23 39.93832 -109.10412 31931 ft 406 kts 279°
2026-04-23 20:24 39.94572 -109.17722 31953 ft 406 kts 279°
2026-04-23 20:24 39.95269 -109.24993 31933 ft 406 kts 278°
2026-04-23 20:25 39.95902 -109.32281 31931 ft 406 kts 278°
2026-04-23 20:25 39.96523 -109.39609 31921 ft 406 kts 278°
2026-04-23 20:26 39.97148 -109.46918 31900 ft 406 kts 278°
2026-04-23 20:26 39.97774 -109.54234 31917 ft 405 kts 277°
2026-04-23 20:27 39.98392 -109.61546 31912 ft 405 kts 277°
2026-04-23 20:27 39.99006 -109.68808 31908 ft 405 kts 277°
2026-04-23 20:28 39.99610 -109.76114 31911 ft 405 kts 277°
2026-04-23 20:28 40.00205 -109.83418 31908 ft 404 kts 277°
2026-04-23 20:29 40.00804 -109.90670 31906 ft 404 kts 277°
2026-04-23 20:29 40.01402 -109.97967 31931 ft 404 kts 277°
2026-04-23 20:30 40.01993 -110.05266 31940 ft 404 kts 277°
2026-04-23 20:30 40.02870 -110.16165 31931 ft 404 kts 276°
2026-04-23 20:31 40.03443 -110.23470 31955 ft 404 kts 276°
2026-04-23 20:31 40.04012 -110.30770 31956 ft 404 kts 276°
2026-04-23 20:32 40.04294 -110.34374 31843 ft 405 kts 276°
2026-04-23 20:32 40.04580 -110.38032 31363 ft 405 kts 276°
2026-04-23 20:32 40.04868 -110.41718 30407 ft 408 kts 277°
2026-04-23 20:32 40.05153 -110.45416 29339 ft 411 kts 277°
2026-04-23 20:33 40.05439 -110.49141 28261 ft 413 kts 277°
2026-04-23 20:33 40.05724 -110.52872 27244 ft 414 kts 277°
2026-04-23 20:33 40.06007 -110.56575 26139 ft 417 kts 277°
2026-04-23 20:33 40.06294 -110.60324 25446 ft 411 kts 277°
2026-04-23 20:34 40.06573 -110.64032 24717 ft 408 kts 277°
2026-04-23 20:34 40.06848 -110.67713 23987 ft 405 kts 277°
2026-04-23 20:34 40.07121 -110.71377 23201 ft 403 kts 277°
2026-04-23 20:34 40.07391 -110.75014 22504 ft 400 kts 277°
2026-04-23 20:35 40.07657 -110.78617 21830 ft 395 kts 277°
2026-04-23 20:35 40.07919 -110.82175 21167 ft 391 kts 277°
2026-04-23 20:35 40.08176 -110.85656 20535 ft 387 kts 278°
2026-04-23 20:35 40.08431 -110.89146 19946 ft 383 kts 278°
2026-04-23 20:36 40.08680 -110.92596 19341 ft 380 kts 278°
2026-04-23 20:36 40.08928 -110.96020 18752 ft 378 kts 278°
2026-04-23 20:36 40.09175 -110.99431 18176 ft 375 kts 278°
2026-04-23 20:36 40.09419 -111.02824 17517 ft 375 kts 278°
2026-04-23 20:37 40.09658 -111.06166 16991 ft 372 kts 278°
2026-04-23 20:37 40.09900 -111.09519 16479 ft 368 kts 278°
2026-04-23 20:37 40.10141 -111.12847 15982 ft 366 kts 279°
2026-04-23 20:37 40.10378 -111.16154 15489 ft 363 kts 278°
2026-04-23 20:38 40.10608 -111.19392 14985 ft 361 kts 278°
2026-04-23 20:38 40.10835 -111.22656 14480 ft 359 kts 278°
2026-04-23 20:38 40.11053 -111.25859 14299 ft 347 kts 278°
2026-04-23 20:38 40.11261 -111.28941 14189 ft 334 kts 278°
2026-04-23 20:39 40.11462 -111.31908 14062 ft 322 kts 278°
2026-04-23 20:39 40.11656 -111.34741 13942 ft 311 kts 278°
2026-04-23 20:39 40.11848 -111.37509 13819 ft 301 kts 278°
2026-04-23 20:39 40.12033 -111.40195 13683 ft 292 kts 278°
2026-04-23 20:40 40.12209 -111.42801 13551 ft 283 kts 278°
2026-04-23 20:40 40.12380 -111.45327 13389 ft 276 kts 278°
2026-04-23 20:40 40.12546 -111.47802 13149 ft 272 kts 278°
2026-04-23 20:40 40.12715 -111.50247 12987 ft 267 kts 279°
2026-04-23 20:41 40.12881 -111.52652 12960 ft 266 kts 278°
2026-04-23 20:41 40.12964 -111.54260 12954 ft 268 kts 272°
2026-04-23 20:41 40.12719 -111.56682 12990 ft 271 kts 261°
2026-04-23 20:41 40.12288 -111.59087 12960 ft 270 kts 261°
2026-04-23 20:42 40.11863 -111.61465 12671 ft 268 kts 261°
2026-04-23 20:42 40.11441 -111.63833 12374 ft 267 kts 261°
2026-04-23 20:42 40.11021 -111.66185 12113 ft 264 kts 261°
2026-04-23 20:42 40.10603 -111.68553 11678 ft 267 kts 260°
2026-04-23 20:43 40.10196 -111.70887 11474 ft 261 kts 260°
2026-04-23 20:43 40.09804 -111.73193 11213 ft 258 kts 261°
2026-04-23 20:43 40.09418 -111.75472 10924 ft 256 kts 260°
2026-04-23 20:43 40.09040 -111.77730 10672 ft 253 kts 260°
2026-04-23 20:44 40.08672 -111.79964 10345 ft 252 kts 260°
2026-04-23 20:44 40.08326 -111.82211 10029 ft 251 kts 260°
2026-04-23 20:44 40.08192 -111.84443 9977 ft 252 kts 279°
2026-04-23 20:44 40.08677 -111.86647 9985 ft 254 kts 289°
2026-04-23 20:45 40.09413 -111.88747 9976 ft 256 kts 307°
2026-04-23 20:45 40.10786 -111.90203 9989 ft 259 kts 335°
2026-04-23 20:45 40.12558 -111.90638 9994 ft 262 kts 357°
2026-04-23 20:45 40.14388 -111.90578 9957 ft 263 kts
2026-04-23 20:46 40.16118 -111.89834 9617 ft 265 kts 32°
2026-04-23 20:46 40.17358 -111.88105 9266 ft 267 kts 61°
2026-04-23 20:46 40.17916 -111.85792 8962 ft 264 kts 78°
2026-04-23 20:46 40.18132 -111.83504 8822 ft 245 kts 95°
2026-04-23 20:47 40.17770 -111.81388 8536 ft 236 kts 108°
2026-04-23 20:47 40.17233 -111.79359 8122 ft 235 kts 110°
2026-04-23 20:47 40.16681 -111.77384 7471 ft 233 kts 109°
2026-04-23 20:47 40.15987 -111.75447 6915 ft 239 kts 122°
2026-04-23 20:48 40.14982 -111.73732 6541 ft 235 kts 131°
2026-04-23 20:48 40.14062 -111.72062 6438 ft 219 kts 112°
2026-04-23 20:48 40.13956 -111.70223 6413 ft 194 kts 70°
2026-04-23 20:48 40.14762 -111.68942 6135 ft 182 kts 25°
2026-04-23 20:49 40.15910 -111.68408 5919 ft 166 kts 10°
2026-04-23 20:49 40.16986 -111.68228 5737 ft 153 kts 351°
2026-04-23 20:49 40.17935 -111.68709 5427 ft 144 kts 321°
2026-04-23 20:49 40.18722 -111.69500 5117 ft 140 kts 328°
2026-04-23 20:50 40.19538 -111.70167 4928 ft 136 kts 327°
2026-04-23 20:50 40.20314 -111.70856 4730 ft 133 kts 326°
2026-04-23 20:50 40.21080 -111.71525 4535 ft 134 kts 326°
2026-04-23 20:50 40.21777 -111.72142 4500 ft 99 kts 326°
2026-04-23 20:51 40.22208 -111.72524 4505 ft 50 kts 326°
2026-04-23 20:51 40.22440 -111.72729 4505 ft 37 kts 326°
2026-04-23 20:51 40.22625 -111.72894 4502 ft 20 kts 326°
2026-04-23 20:51 40.22681 -111.72892 4503 ft 7 kts 72°
2026-04-23 20:52 40.22678 -111.72826 4502 ft 11 kts 94°
2026-04-23 20:52 40.22671 -111.72709 4505 ft 11 kts 95°
2026-04-23 20:52 40.22636 -111.72645 4508 ft 10 kts 145°
2026-04-23 20:52 40.22561 -111.72578 4510 ft 16 kts 146°
2026-04-23 20:53 40.22467 -111.72494 4508 ft 15 kts 146°
2026-04-23 20:53 40.22385 -111.72422 4510 ft 13 kts 144°
2026-04-23 20:53 40.22308 -111.72353 4505 ft 14 kts 146°
2026-04-23 20:53 40.22230 -111.72284 4505 ft 13 kts 146°
2026-04-23 20:54 40.22158 -111.72221 4504 ft 14 kts 146°
2026-04-23 20:54 40.22051 -111.72140 4499 ft 19 kts 153°
2026-04-23 20:54 40.21944 -111.72068 4500 ft 16 kts 151°
2026-04-23 20:54 40.21856 -111.71994 4500 ft 14 kts 147°
2026-04-23 20:55 40.21778 -111.71926 4502 ft 13 kts 146°
2026-04-23 20:55 40.21711 -111.71867 4501 ft 11 kts 146°
2026-04-23 20:55 40.21654 -111.71818 4503 ft 9 kts 146°
2026-04-23 20:55 40.21582 -111.71753 4503 ft 18 kts 145°
2026-04-23 20:56 40.21461 -111.71644 4502 ft 21 kts 146°
2026-04-23 20:56 40.21351 -111.71547 4501 ft 14 kts 147°
2026-04-23 20:56 40.21336 -111.71490 4500 ft 5 kts 66°
2026-04-23 20:56 40.21365 -111.71432 4499 ft 7 kts 59°
2026-04-23 20:57 40.21351 -111.71390 4502 ft 4 kts 133°
2026-04-23 20:57 40.21353 -111.71363 4502 ft 4 kts 60°
2026-04-23 20:57 40.21365 -111.71340 4499 ft 2 kts 55°
2026-04-23 20:57 40.21369 -111.71332 4501 ft 0 kts 56°